BCS6GA EBBR-LIMC

Flight info

Callsign BCS6GA
Flight time N/A
Altitude 31000
Route ROUSY DCT GTQ DCT OBORN DCT DEVDI DCT BASGO/N0425F290 Z424 AKASU Z424 RIXUV
Aircraft A306/M-SDE1FGHIRWXYZ/HB1

Departure

Time N/A
Airport Brussels Airport (EBBR)

Arrival

Time 2026-05-03 20:32
Airport Milan Malpensa International Airport (LIMC)
Time Latitude Longitude Altitude Speed Heading
2026-05-03 20:15 46.23318 8.47838 23583 ft 386 kts 176°
2026-05-03 20:15 46.20655 8.48287 23028 ft 384 kts 177°
2026-05-03 20:15 46.18003 8.48664 22544 ft 378 kts 178°
2026-05-03 20:15 46.15424 8.49005 22074 ft 376 kts 178°
2026-05-03 20:16 46.12825 8.49345 21583 ft 375 kts 177°
2026-05-03 20:16 46.10268 8.50154 21081 ft 376 kts 166°
2026-05-03 20:16 46.07775 8.51358 20592 ft 376 kts 164°
2026-05-03 20:16 46.05323 8.52636 20085 ft 375 kts 163°
2026-05-03 20:17 46.02888 8.53932 19628 ft 372 kts 163°
2026-05-03 20:17 46.00452 8.55233 19189 ft 370 kts 163°
2026-05-03 20:17 45.98082 8.56503 18739 ft 368 kts 163°
2026-05-03 20:17 45.96488 8.57357 18450 ft 367 kts 162°
2026-05-03 20:18 45.94511 8.58419 18224 ft 360 kts 162°
2026-05-03 20:18 45.92219 8.59650 18028 ft 350 kts 162°
2026-05-03 20:18 45.89992 8.60982 17849 ft 342 kts 154°
2026-05-03 20:18 45.88050 8.62896 17680 ft 335 kts 146°
2026-05-03 20:19 45.86277 8.64938 17472 ft 327 kts 144°
2026-05-03 20:19 45.84516 8.67004 17151 ft 324 kts 144°
2026-05-03 20:19 45.82780 8.69034 16792 ft 321 kts 144°
2026-05-03 20:19 45.81049 8.71050 16438 ft 318 kts 144°
2026-05-03 20:20 45.79335 8.73039 16049 ft 315 kts 144°
2026-05-03 20:20 45.77662 8.74976 15633 ft 312 kts 144°
2026-05-03 20:20 45.75910 8.76769 15200 ft 306 kts 152°
2026-05-03 20:20 45.74061 8.78263 14809 ft 302 kts 155°
2026-05-03 20:21 45.72208 8.79684 14392 ft 300 kts 155°
2026-05-03 20:21 45.70376 8.81082 13988 ft 295 kts 155°
2026-05-03 20:21 45.68569 8.82465 13393 ft 293 kts 155°
2026-05-03 20:21 45.66797 8.83821 12813 ft 291 kts 154°
2026-05-03 20:22 45.65033 8.85175 12452 ft 279 kts 154°
2026-05-03 20:22 45.63362 8.86459 12020 ft 268 kts 154°
2026-05-03 20:22 45.61702 8.87584 11460 ft 261 kts 164°
2026-05-03 20:22 45.59948 8.88220 10874 ft 258 kts 170°
2026-05-03 20:23 45.58260 8.88683 10311 ft 255 kts 171°
2026-05-03 20:23 45.56516 8.89143 9726 ft 253 kts 170°
2026-05-03 20:23 45.54786 8.89602 9090 ft 252 kts 170°
2026-05-03 20:23 45.53062 8.90064 8471 ft 251 kts 170°
2026-05-03 20:24 45.51355 8.90524 8026 ft 253 kts 170°
2026-05-03 20:24 45.49630 8.90992 7732 ft 250 kts 169°
2026-05-03 20:24 45.47922 8.91455 7420 ft 249 kts 169°
2026-05-03 20:24 45.46231 8.91914 7093 ft 248 kts 169°
2026-05-03 20:25 45.44546 8.92372 6889 ft 242 kts 169°
2026-05-03 20:25 45.42904 8.92818 6675 ft 238 kts 169°
2026-05-03 20:25 45.41284 8.93258 6363 ft 237 kts 169°
2026-05-03 20:25 45.39680 8.93630 6054 ft 236 kts 179°
2026-05-03 20:26 45.38051 8.93171 5518 ft 245 kts 205°
2026-05-03 20:26 45.36793 8.91568 5144 ft 247 kts 240°
2026-05-03 20:26 45.36443 8.89223 4889 ft 245 kts 276°
2026-05-03 20:26 45.36981 8.86953 4677 ft 240 kts 294°
2026-05-03 20:27 45.37707 8.84900 4507 ft 234 kts 296°
2026-05-03 20:27 45.38461 8.82887 4424 ft 222 kts 297°
2026-05-03 20:27 45.39207 8.81054 4377 ft 208 kts 303°
2026-05-03 20:27 45.40206 8.79610 4050 ft 209 kts 332°
2026-05-03 20:28 45.41613 8.79118 3806 ft 207 kts 354°
2026-05-03 20:28 45.43029 8.78875 3770 ft 204 kts 351°
2026-05-03 20:28 45.44436 8.78488 3695 ft 207 kts 347°
2026-05-03 20:28 45.45848 8.78066 3627 ft 208 kts 348°
2026-05-03 20:29 45.47256 8.77672 3558 ft 209 kts 349°
2026-05-03 20:29 45.48690 8.77297 3339 ft 208 kts 350°
2026-05-03 20:29 45.50113 8.76936 3042 ft 208 kts 349°
2026-05-03 20:29 45.51525 8.76530 2803 ft 204 kts 348°
2026-05-03 20:30 45.52888 8.76147 2521 ft 199 kts 348°
2026-05-03 20:30 45.54244 8.75781 2149 ft 195 kts 348°
2026-05-03 20:30 45.55511 8.75437 2006 ft 178 kts 347°
2026-05-03 20:30 45.56693 8.75110 1786 ft 165 kts 347°
2026-05-03 20:31 45.57758 8.74814 1538 ft 149 kts 348°
2026-05-03 20:31 45.58753 8.74552 1312 ft 142 kts 347°
2026-05-03 20:31 45.59707 8.74280 1142 ft 137 kts 347°
2026-05-03 20:31 45.60641 8.74017 960 ft 136 kts 347°
2026-05-03 20:32 45.61567 8.73754 813 ft 138 kts 347°
2026-05-03 20:32 45.62493 8.73495 767 ft 126 kts 350°
2026-05-03 20:32 45.63189 8.73303 755 ft 79 kts 348°
2026-05-03 20:32 45.63561 8.73194 767 ft 36 kts 340°
2026-05-03 20:33 45.63761 8.73019 766 ft 32 kts 315°
2026-05-03 20:33 45.63879 8.72784 756 ft 12 kts 303°
2026-05-03 20:33 45.63918 8.72696 760 ft 10 kts 304°
2026-05-03 20:33 45.63952 8.72613 765 ft 9 kts 289°
2026-05-03 20:34 45.63955 8.72528 765 ft 8 kts 262°
2026-05-03 20:34 45.63945 8.72448 762 ft 11 kts 259°
2026-05-03 20:34 45.63920 8.72276 762 ft 20 kts 259°
2026-05-03 20:34 45.63914 8.72080 762 ft 19 kts 266°
2026-05-03 20:35 45.63902 8.71935 761 ft 7 kts 260°
2026-05-03 20:35 45.63888 8.71880 763 ft 5 kts 241°
2026-05-03 20:35 45.63864 8.71846 765 ft 4 kts 217°
2026-05-03 20:35 45.63818 8.71825 757 ft 10 kts 181°
2026-05-03 20:36 45.63753 8.71838 758 ft 9 kts 169°
2026-05-03 20:36 45.63691 8.71855 765 ft 11 kts 169°
2026-05-03 20:36 45.63601 8.71880 761 ft 16 kts 169°
2026-05-03 20:36 45.63477 8.71915 759 ft 20 kts 169°
2026-05-03 20:37 45.63338 8.71953 761 ft 20 kts 168°
2026-05-03 20:37 45.63208 8.71989 765 ft 19 kts 169°
2026-05-03 20:37 45.63086 8.72023 760 ft 17 kts 169°
2026-05-03 20:37 45.62974 8.72053 762 ft 16 kts 168°
2026-05-03 20:38 45.62868 8.72083 763 ft 15 kts 169°
2026-05-03 20:38 45.62768 8.72110 763 ft 15 kts 169°
2026-05-03 20:38 45.62651 8.72143 761 ft 18 kts 169°
2026-05-03 20:38 45.62533 8.72176 765 ft 17 kts 168°
2026-05-03 20:39 45.62422 8.72205 760 ft 16 kts 171°
2026-05-03 20:39 45.62321 8.72234 761 ft 15 kts 169°
2026-05-03 20:39 45.62221 8.72261 761 ft 16 kts 169°
2026-05-03 20:39 45.62092 8.72297 766 ft 21 kts 169°
2026-05-03 20:40 45.61934 8.72342 766 ft 24 kts 168°
2026-05-03 20:40 45.61776 8.72385 766 ft 22 kts 169°
2026-05-03 20:40 45.61628 8.72426 766 ft 21 kts 169°
2026-05-03 20:40 45.61491 8.72464 766 ft 18 kts 168°
2026-05-03 20:41 45.61404 8.72409 766 ft 14 kts 258°
2026-05-03 20:41 45.61385 8.72274 766 ft 13 kts 258°
2026-05-03 20:41 45.61333 8.72199 766 ft 11 kts 180°
2026-05-03 20:41 45.61264 8.72215 766 ft 10 kts 169°
2026-05-03 20:42 45.61201 8.72232 766 ft 9 kts 170°
2026-05-03 20:42 45.61142 8.72183 766 ft 12 kts 228°
2026-05-03 20:42 45.61058 8.72143 766 ft 14 kts 168°
2026-05-03 20:42 45.60967 8.72170 766 ft 13 kts 169°
2026-05-03 20:43 45.60884 8.72192 766 ft 9 kts 169°
2026-05-03 20:43 45.60842 8.72196 766 ft 4 kts 201°
2026-05-03 20:43 45.60831 8.72171 766 ft 3 kts 248°
2026-05-03 20:43 45.60826 8.72141 766 ft 4 kts 257°
2026-05-03 20:44 45.60821 8.72109 766 ft 3 kts 258°
2026-05-03 20:44 45.60817 8.72084 766 ft 0 kts 258°